Regional Weather Roundup
Issued by NWS

Home | Current Version | Previous Version | Graphics & Text | Print | Product List | Glossary On
Versions: 1 2 3 4 5 6 7 8 9 10 11 12 13 14 15 16 17 18 19 20 21 22 23 24 25 26 27 28 29 30 31 32 33 34 35 36 37 38 39 40 41 42 43 44 45 46 47 48 49 50
487
ASUS43 KMPX 202010
RWRMN
WEATHER ROUNDUP FOR MINNESOTA
NATIONAL WEATHER SERVICE TWIN CITIES/CHANHASSEN MN
200 PM CST TUE FEB 20 2018


NOTE: "FAIR" INDICATES FEW OR NO CLOUDS BELOW 12,000 FEET WITH NO
SIGNIFICANT WEATHER AND/OR OBSTRUCTIONS TO VISIBILITY. N/A MEANS
CURRENT SKY AND/OR WEATHER CONDITIONS ARE NOT AVAILABLE.

MNZ060>063-068>070-202100-
   Twin Cities Metro

CITY           SKY/WX    TMP DP  RH WIND       PRES   REMARKS
TWIN CITIES    CLOUDY    20  14  77 W13       29.98R WCI   7
ST PAUL        CLOUDY    20  14  77 W10       29.98R WCI   9
CRYSTAL        CLOUDY    19  10  68 NW13      29.97R WCI   6
BLAINE         PTSUNNY   21  14  73 W15       29.96R WCI   8
LAKEVILLE      CLOUDY    18  12  79 W15       29.98R WCI   3
EDEN PRAIRIE   CLOUDY    19  10  68 NW15      29.98R WCI   5
SOUTH ST PAUL  CLOUDY    21  14  75 W9G17     29.97R WCI  11
LAKE ELMO      CLOUDY    21  16  79 W8        29.96R WCI  12
$$
MNZ001>005-007-008-013>017-022>024-027-028-202100-
   Northwest Minnesota

CITY           SKY/WX    TMP DP  RH WIND       PRES   REMARKS
BEMIDJI        PTSUNNY   10   3  72 W12       29.97R WCI  -5
HALLOCK        FAIR      10   3  72 NW10      30.08R WCI  -3
ROSEAU         LGT SNOW   9   3  78 W10       30.01S WCI  -6
WARROAD          N/A      9   3  78 W9        30.00S HAZE    WCI  -5
THIEF RVR FALL PTSUNNY   10   2  69 NW14      30.05S WCI  -6
CROOKSTON      PTSUNNY    9   3  78 NW13      30.10R HAZE    WCI  -7
FOSSTON        FAIR       9   0  66 W12       30.03R WCI  -6
DETROIT LAKES  SNOW       9   3  78 NW21      30.05R VSB 1/2 WCI -11
MOORHEAD       CLOUDY     9   3  78 NW16      30.11S WCI  -9
PARK RAPIDS    PTSUNNY   13   4  67 W14       29.96R HAZE    WCI  -2
MAHNOMEN       CLOUDY     7   1  75 NW15      30.03S WCI -11
$$
MNZ006-009>011-018-025>026-202100-
   North Central Minnesota

CITY           SKY/WX    TMP DP  RH WIND       PRES   REMARKS
BAUDETTE       PTSUNNY    9   2  73 NW15      29.96R WCI  -8
FLAG ISLAND    CLOUDY     7   1  78 NW12      29.98S HAZE    WCI  -9
INTL FALLS     LGT SNOW  10   2  69 W13       29.92S WCI  -5
WASKISH        CLOUDY    12   5  73 W8        29.96R WCI   1
BIG FORK       FLURRIES  14   7  73 NW6       29.92R WCI   5
LONGVILLE      CLOUDY    12   3  67 NW8G20    29.96R WCI   1
GRAND RAPIDS   CLOUDY    12   4  70 W12       29.93R WCI  -2
CRANE LAKE     FLURRIES   9   1  72 N3        29.93R
ORR            MIX PCPN   9   0  66 NW9       29.87R WCI  -5
COOK           FLURRIES  10   3  72 W7        29.90R WCI   0
WALKER         MOCLDY    12   3  66 NW10G17   29.96R WCI  -1
$$
MNZ012-019>021-037-202100-
   Northeast Minnesota

CITY           SKY/WX    TMP DP  RH WIND       PRES   REMARKS
DULUTH         FLURRIES  14   7  73 NW10      29.86S WCI   1
ELY            LGT SNOW   9   1  72 W5        29.86S WCI   0
HIBBING        CLOUDY    10   3  73 NW8       29.89R WCI  -2
EVELETH        FLURRIES N/A N/A N/A NW8       29.88S
DULUTH HARBOR  LGT SNOW  16  10  79 W3        29.94S
TWO HARBORS    LGT SNOW  18   9  68 NW5       29.87R WCI  11
GRAND MARAIS     N/A     14   5  67 NW8       29.89R WCI   3
G MARAIS ARPRT LGT SNOW   7   0  72 N6        29.78S WCI  -3
$$
MNZ029>031-032-039>041-046>048-054>057-064-202100-
   West Central Minnesota

CITY           SKY/WX    TMP DP  RH WIND       PRES   REMARKS
FERGUS FALLS   PTSUNNY    9   1  72 NW23G30   30.08R HAZE    WCI -12
WHEATON        CLOUDY    10   1  67 NW17G23   30.13R WCI  -7
MORRIS         CLOUDY    10   3  72 NW25      30.07R HAZE    WCI -10
ALEXANDRIA     FAIR      12   3  67 NW17G25   30.01R WCI  -5
ELBOW LAKE     FAIR       8   1  74 W22G28    30.06R WCI -12
WADENA         SNOW      10   1  67 NW14G20   29.98R VSB 1/2 WCI  -5
GLENWOOD       LGT SNOW  10   3  72 NW22      30.02R WCI  -9
APPLETON       CLOUDY    12   5  73 NW18G25   30.10R WCI  -5
BENSON         PTSUNNY   10   3  72 N24       30.08R WCI -10
ORTONVILLE     PTSUNNY   12   3  67 NW17G30   30.10R HAZE    WCI  -5
MADISON          N/A     14   7  73 NW21G26   30.12R WCI  -4
WILLMAR        CLOUDY    10   5  79 NW20G30   30.06R WCI  -8
$$
MNZ033>034-036-042>043-049>051-058-059-202100-
   Central Minnesota

CITY           SKY/WX    TMP DP  RH WIND       PRES   REMARKS
ST CLOUD       FAIR      17   8  67 NW14      29.97R WCI   3
SAUK CENTRE    FAIR      13   6  71 NW18G24   30.00R WCI  -4
PAYNESVILLE    CLOUDY    14   8  75 W18       30.01R WCI  -3
AITKIN         FAIR      16   5  62 W9        29.92R WCI   4
PINE RIVER     CLOUDY    14   5  67 NW8       29.99R WCI   3
BRAINERD       PTSUNNY   17   5  59 NW10G21   29.95R WCI   5
STAPLES        FLURRIES  12   3  67 W15       29.97R WCI  -4
LONG PRAIRIE   FAIR      14   5  67 W16       29.99R WCI  -2
LITTLE FALLS   LGT SNOW  18   1  49 W14G20    29.98R WCI   4
LITCHFIELD     FAIR      18  10  73 W15G21    30.00R WCI   3
BUFFALO        FAIR      19   9  64 W12       30.00R WCI   6
MAPLE LAKE     FAIR      20  11  66 W12G17    30.00R WCI   8
HUTCHINSON     FAIR      17  10  72 W20G26    30.02R WCI   1
$$
MNZ037-044-045-052-053-202100-
   East Central Minnesota

CITY           SKY/WX    TMP DP  RH WIND       PRES   REMARKS
PRINCETON      FAIR      21   9  58 W10G16    29.95S WCI  10
MORA           FAIR      19   9  63 NW8       29.96R WCI   9
CAMBRIDGE        N/A     19   9  63 W12       29.95S WCI   7
RUSH CITY      CLOUDY    18  10  69 W7        29.95R WCI   9
MOOSE LAKE     PTSUNNY   18   9  68 CALM      29.90S
HINCKLEY       CLOUDY    18  12  79 W9        29.94R WCI   6
CLOQUET        FLURRIES  12   7  79 W6        29.88S WCI   3
MCGREGOR       CLOUDY    19   9  63 NW7       29.91S WCI  10
$$
MNZ071>073-080-081-089-090-097-098-202100-
   Southwest Minnesota

CITY           SKY/WX    TMP DP  RH WIND       PRES   REMARKS
MONTEVIDEO     PTSUNNY   14   5  67 N21       30.08R WCI  -4
GRANITE FALLS  FAIR      14   7  72 W21       30.12R WCI  -4
CANBY          FAIR      14   5  68 W22G29    30.12R WCI  -5
MARSHALL       PTSUNNY   11   4  73 NW21      30.09R WCI  -8
REDWOOD FALLS  FLURRIES  12   6  77 W18G26    30.07R WCI  -6
OLIVIA         PTSUNNY   14   9  79 NW24G30   30.06R HAZE    WCI  -5
PIPESTONE      FAIR      10   3  72 NW20      30.08R WCI  -8
WINDOM         CLOUDY    12  -2  52 CALM      30.05R HAZE
WORTHINGTON    PTSUNNY   13   6  74 NW22      30.07R WCI  -6
JACKSON        PTSUNNY   14   7  73 NW15      30.06R WCI  -1
TRACY          FAIR      12   6  77 NW20      30.09R WCI  -6
SLAYTON        FAIR      11   5  77 NW20      30.07R HAZE    WCI  -8
$$
MNZ065>067-074>077-082>085-091>093-202100-
   South Central Minnesota

CITY           SKY/WX    TMP DP  RH WIND       PRES   REMARKS
MANKATO        FLURRIES  16   9  74 W22       30.02R WCI  -2
NEW ULM        CLOUDY    12   7  79 W20       30.05R HAZE    WCI  -6
ST JAMES       CLOUDY    14   9  79 W16G22    30.07R WCI  -2
FAIRMONT       PTSUNNY   16   9  73 NW21      30.07R WCI  -2
GLENCOE        FLURRIES  18  11  74 W16       30.00R WCI   3
FARIBAULT      CLOUDY    19  12  73 W9        29.99R WCI   9
OWATONNA       CLOUDY    19  14  79 CALM      29.98R
WASECA         CLOUDY    19  14  79 W9        30.02R WCI   9
ALBERT LEA     CLOUDY    18  12  79 W6        29.99R WCI   9
$$
MNZ078>079-086>088-094>096-202100-
   Southeast Minnesota

CITY           SKY/WX    TMP DP  RH WIND       PRES   REMARKS
ROCHESTER      CLOUDY    20  17  88 W17       29.96R WCI   5
RED WING       LGT SNOW  21  16  79 W10       29.96R WCI  10
STANTON        CLOUDY    21  14  75 W10       29.97R WCI  10
DODGE CENTER   CLOUDY    18  12  79 W10       29.95R WCI   6
WINONA         CLOUDY    27  21  80 W10G17    29.95R WCI  17
AUSTIN         LGT SNOW  18  14  86 NW10      29.98R WCI   6
PRESTON        CLOUDY    21  17  85 NW13      29.95R WCI   8
$$
ABBREVIATIONS USED IN REMARKS
   TC - TEMPERATURES IN CELSIUS
  WCI - WIND CHILL INDEX
   HX - HEAT INDEX
  VSB - VISIBILITY
$$




USA.gov is the U.S. government's official web portal to all federal, state and local government web resources and services.